Location: Gälforsberget
(66.6500°N, 22.4167°E)
Time: 07:10:03
(UTC+00:00)

Geosat - Pass Details

Date: 11 April 2026
Orbit: 758 x 760 km, 108.0° (Epoch: 13 May)

Event Time Altitude Azimuth Distance (km) Brightness Sun altitude
Rises 19:42:13 0° 46° (NE) 3,234 7.3 -8.8°
Reaches altitude 10° 19:44:32 10° 50° (NE) 2,305 6.5 -9.0°
Maximum altitude 19:49:31 61° 131° (SE) 867 4.0 -9.3°
Drops below altitude 10° 19:54:28 10° 212° (SSW) 2,296 6.3 -9.6°
Sets 19:56:46 0° 216° (SW) 3,219 7.1 -9.8°
